Location: Eschertshofen
(49.3064°N, 11.5756°E)
Time: 17:17:32
(UTC+00:00)

Spot 2 Rocket - Pass Details

Date: 25 June 2021
Orbit: 757 x 771 km, 98.5° (Epoch: 25 July)

Event Time Altitude Azimuth Distance (km) Brightness Sun altitude
Exits shadow 20:41:58 - 175° (S) 2,466 5.6 -9.6°
Reaches altitude 10° 20:42:24 10° 176° (S) 2,296 5.5 -9.6°
Maximum altitude 20:47:25 65° 258° (WSW) 847 3.8 -10.1°
Drops below altitude 10° 20:52:30 10° 340° (NNW) 2,322 7.4 -10.6°
Sets 20:54:51 0° 344° (NNW) 3,255 8.4 -10.8°
